Regional Weather Roundup
Issued by NWS Little Rock, AR

Home | Current Version | Previous Version | Graphics & Text | Print | Product List | Glossary On
Versions: 1 2 3 4 5 6 7 8 9 10 11 12 13 14 15 16 17 18 19 20 21 22 23 24 25 26 27 28 29 30 31 32 33 34 35 36 37 38 39 40 41 42 43 44 45 46 47 48 49 50
000
ASUS44 KLZK 181305
RWRLZK

WEATHER ROUNDUP FOR ARKANSAS
NATIONAL WEATHER SERVICE LITTLE ROCK AR
800 AM CDT THU SEP 18 2014

NOTE: "FAIR" INDICATES FEW OR NO CLOUDS BELOW 12,000 FEET WITH NO
SIGNIFICANT WEATHER AND/OR OBSTRUCTIONS TO VISIBILITY.

ARZ001-003-010-029-181400-
NORTHWEST ARKANSAS

CITY           SKY/WX    TMP DP  RH WIND       PRES   REMARKS
FAYETTEVILLE   CLOUDY    66  59  78 N8G18     30.01S
FORT SMITH     CLOUDY    68  66  93 CALM      29.96R
HARRISON       CLOUDY    63  63 100 N3        30.02R
BENTONVILLE    CLOUDY    64  59  82 N13       30.05S
ROGERS         RAIN      63  59  87 NW12      30.06R
SILOAM SPGS    CLOUDY    64  55  72 N16       30.04R
HIGHFILL       LGT RAIN  63  62  97 N13       30.04R
SPRINGDALE     RAIN      64  61  88 N14G28    30.03R FOG
$$

ARZ004-005-016-181400-
NORTH CENTRAL ARKANSAS

CITY           SKY/WX    TMP DP  RH WIND       PRES   REMARKS
BATESVILLE     CLOUDY    63  61  94 CALM      29.97R
FLIPPIN        CLOUDY    63  59  88 N6        30.02R VSB 1/2
MTN HOME       FOG       63  63 100 N3        30.01R VSB 1/2
$$

ARZ040-041-181400-
WEST CENTRAL ARKANSAS

CITY           SKY/WX    TMP DP  RH WIND       PRES   REMARKS
MENA             N/A     70  68  94 CALM      29.97R
MOUNT IDA      CLOUDY    71  70  96 CALM      29.93R FOG
$$

ARZ009-017-025-026-028-181400-
NORTHEAST ARKANSAS

CITY           SKY/WX    TMP DP  RH WIND       PRES   REMARKS
CORNING          N/A     63  63 100 N6        30.00R FOG
JONESBORO      CLOUDY    64  63  96 E8        29.97R
NEWPORT        CLOUDY    65  64  96 NE7       29.98R FOG
WALNUT RIDGE   CLOUDY    63  61  94 NE7       29.98R
BLYTHEVILLE    CLOUDY    65  62  90 NE3       29.98R
$$

ARZ022-023-033-042-044-181400-
CENTRAL ARKANSAS

CITY           SKY/WX    TMP DP  RH WIND       PRES   REMARKS
LITTLE ROCK    CLOUDY    67  63  87 NE6       29.95R FOG
N LITTLE ROCK    N/A     65  64  99 NE7       29.95R
JACKSONVILLE   CLOUDY    65  63  93 NE3       29.95R
SEARCY         CLOUDY    64  63  97 N6        29.97R FOG
HOT SPRINGS    CLOUDY    72  69  90 E6        29.94R
RUSSELLVILLE   CLOUDY    70  67  90 CALM      29.96R FOG
CLINTON        CLOUDY    66  66 100 CALM      29.97S FOG
$$

ARZ036-181400-
EAST ARKANSAS

CITY           SKY/WX    TMP DP  RH WIND       PRES   REMARKS
WEST MEMPHIS   CLOUDY    67  66  97 NE6       29.95R
$$

ARZ050-053-066-070-073-181400-
SOUTHWEST ARKANSAS

CITY           SKY/WX    TMP DP  RH WIND       PRES   REMARKS
ARKADELPHIA    FAIR      73  73 100 N5        29.93R
CAMDEN         PTSUNNY   72  68  88 CALM      29.92R FOG
TEXARKANA      CLOUDY    73  72  96 E3        29.92R FOG
EL DORADO      MOSUNNY   73  71  93 CALM      29.93R
DE QUEEN       CLOUDY    72  70  93 NW5       29.89R
$$

ARZ056-057-069-181400-
SOUTHEAST ARKANSAS

CITY           SKY/WX    TMP DP  RH WIND       PRES   REMARKS
PINE BLUFF     CLOUDY    71  69  93 CALM      29.93R
STUTTGART      CLOUDY    66  64  94 N6        29.94R
MONTICELLO     CLOUDY    72  69  90 NE5       29.93R

$$





USA.gov is the U.S. government's official web portal to all federal, state and local government web resources and services.